FW5790 Weather Reports


Display with metric or nautical units.
time (UTC)temp
F
wind
direction
speed
MPH
gust
MPH
rain 1hr
in
rain 24hr
in
rain mn
in
humidity
%
barometer
mb
20260502221546 53 0 0.0 1.0 0.00 0.00 0.00 59 1017.8
20260502220047 53 169 0.0 2.0 0.00 0.00 0.00 58 1017.7
20260502214547 53 0 0.0 1.0 0.00 0.00 0.00 62 1017.8
20260502213046 52 0 0.0 1.0 0.00 0.00 0.00 61 1017.9
20260502211549 52 0 0.0 0.0 0.00 0.00 0.00 62 1018.0
20260502210048 52 0 0.0 1.0 0.00 0.00 0.00 63 1018.0
20260502204601 53 149 0.0 2.0 0.00 0.00 0.00 60 1018.0
20260502203106 54 131 0.0 3.0 0.00 0.00 0.00 59 1018.0
20260502201543 54 132 0.0 1.0 0.00 0.00 0.00 60 1018.0
20260502200046 53 0 0.0 2.0 0.00 0.00 0.00 61 1018.1
20260502194544 53 98 0.0 2.0 0.00 0.00 0.00 62 1018.2
20260502193044 53 96 1.0 2.0 0.00 0.00 0.00 62 1018.1
20260502191556 53 0 0.0 1.0 0.00 0.00 0.00 62 1018.3
20260502190047 53 0 0.0 2.0 0.00 0.00 0.00 61 1018.4
20260502184546 53 0 0.0 0.0 0.00 0.00 0.00 64 1018.5
20260502183046 54 0 1.0 4.0 0.00 0.00 0.00 60 1018.5
20260502181607 52 180 0.0 2.0 0.00 0.00 0.00 63 1018.7
20260502163046 54 193 0.0 2.0 0.00 0.00 0.00 62 1018.8
20260502161546 54 111 1.0 2.0 0.00 0.00 0.00 63 1019.1
20260502151600 53 162 1.0 1.0 0.00 0.00 0.00 62 1019.1
20260502123047 43 0 0.0 2.0 0.00 0.00 0.00 81 1018.6
20260502121543 43 0 1.0 2.0 0.00 0.00 0.00 81 1018.6
20260502114554 41 0 0.0 0.0 0.00 0.00 0.00 86 1018.3
20260502113049 40 0 0.0 0.0 0.00 0.00 0.00 86 1018.1
20260502111544 40 0 0.0 0.0 0.00 0.00 0.00 85 1017.9
20260502110051 40 0 0.0 0.0 0.00 0.00 0.00 85 1018.2
20260502104544 41 0 0.0 0.0 0.00 0.00 0.00 85 1018.1
20260502103043 41 0 0.0 1.0 0.00 0.00 0.00 84 1017.9
20260502101549 41 0 0.0 1.0 0.00 0.00 0.00 84 1017.9
20260502070052 42 0 0.0 0.0 0.00 0.00 0.00 82 1017.7
20260502064556 42 0 0.0 0.0 0.00 0.00 0.00 83 1017.8
20260502063051 41 0 0.0 0.0 0.00 0.00 0.00 85 1017.9
20260502061545 41 0 0.0 0.0 0.00 0.00 0.00 85 1017.9
20260502060049 41 0 0.0 0.0 0.00 0.00 0.00 85 1018.2
20260502054554 41 0 0.0 0.0 0.00 0.00 0.00 84 1018.3
20260502053051 42 0 0.0 0.0 0.00 0.00 0.00 83 1018.5
20260502051551 42 0 0.0 0.0 0.00 0.00 0.00 83 1018.5
20260502050050 42 0 0.0 0.0 0.00 0.00 0.00 83 1018.3
20260502044546 42 0 0.0 0.0 0.00 0.00 0.00 84 1018.5
20260502043050 42 0 0.0 0.0 0.00 0.00 0.00 84 1018.6
20260502041545 42 0 0.0 0.0 0.00 0.00 0.00 84 1018.6
20260502040054 43 0 0.0 0.0 0.00 0.00 0.00 83 1018.7
20260502034548 43 0 0.0 0.0 0.00 0.00 0.00 82 1018.8
20260502033048 43 0 0.0 0.0 0.00 0.00 0.00 80 1018.6
20260502031549 44 0 0.0 0.0 0.00 0.00 0.00 80 1018.5
20260502030044 45 0 0.0 0.0 0.00 0.00 0.00 79 1018.7
20260502024545 45 0 0.0 0.0 0.00 0.00 0.00 77 1018.9
20260502023053 46 0 0.0 0.0 0.00 0.00 0.00 76 1018.8
20260502021547 46 0 0.0 0.0 0.00 0.00 0.00 73 1018.5
20260502014551 48 0 0.0 0.0 0.00 0.00 0.00 72 1017.8
20260502013044 48 0 0.0 0.0 0.00 0.00 0.00 69 1017.7
20260502011551 49 0 0.0 0.0 0.00 0.00 0.00 70 1017.3
20260502010046 50 0 0.0 0.0 0.00 0.00 0.00 68 1017.0
20260502004550 51 0 0.0 0.0 0.00 0.00 0.00 64 1016.9
20260502003046 52 0 0.0 1.0 0.00 0.00 0.00 61 1016.9
20260502001622 53 205 0.0 2.0 0.00 0.00 0.00 59 1016.5
20260502000047 54 191 1.0 2.0 0.00 0.00 0.00 60 1016.0
20260501234548 54 0 0.0 1.0 0.00 0.00 0.00 60 1015.5
20260501233047 54 0 0.0 3.0 0.00 0.00 0.00 62 1015.5
20260501231545 55 0 0.0 1.0 0.00 0.00 0.00 60 1015.8
20260501230044 55 0 0.0 1.0 0.00 0.00 0.00 60 1015.9
20260501224556 55 207 1.0 3.0 0.00 0.00 0.00 57 1015.8
20260501223043 56 89 0.0 5.0 0.00 0.00 0.00 60 1015.8